When you browse on this site, cookies collect data to enhance your experience and personalize the content and advertising you see.
Visit our Privacy Policy to learn more. By continuing to use the site, you agree to this use of cookies and data.
  • In Schweiz
  • Länderverzeichnis
  • Für 7 Tage
  • Wassertemperatur
  • Satellitenkarten
  • Wetterkarte
  • Widgets
  • user-avatar
    Anmelden

    Stündliche Wetter Tovstolis

    Heute, 20 April, Samstag

    Zeit Temperatur Niederschläge Wind Luftdruck Luftfeuchtigkeit
    00:00 +7°C° 0 mm 1 m/S 759 mmHg 61%
    01:00 +7°C° 0 mm 1 m/S 759 mmHg 61%
    02:00 +5°C° 0 mm 0 m/S 759 mmHg 61%
    03:00 +5°C° 0 mm 0 m/S 759 mmHg 62%
    04:00 +4°C° 0 mm 0 m/S 759 mmHg 62%
    05:00 +4°C° 0 mm 0 m/S 759 mmHg 62%
    06:00 +7°C° 0 mm 1 m/S 759 mmHg 58%
    07:00 +8°C° 0 mm 1 m/S 759 mmHg 54%
    08:00 +10°C° 0 mm 1 m/S 759 mmHg 50%
    09:00 +11°C° 0 mm 1 m/S 758 mmHg 46%
    10:00 +13°C° 0 mm 1 m/S 758 mmHg 42%
    11:00 +14°C° 0 mm 1 m/S 758 mmHg 38%
    12:00 +14°C° 0 mm 1 m/S 757 mmHg 37%
    13:00 +15°C° 0 mm 1 m/S 757 mmHg 36%
    14:00 +15°C° 0 mm 1 m/S 757 mmHg 36%
    15:00 +15°C° 0 mm 1 m/S 756 mmHg 37%
    16:00 +14°C° 0 mm 1 m/S 756 mmHg 39%
    17:00 +14°C° 0 mm 1 m/S 756 mmHg 40%
    18:00 +13°C° 0 mm 1 m/S 756 mmHg 44%
    19:00 +12°C° 0 mm 2 m/S 756 mmHg 47%
    20:00 +10°C° 0 mm 2 m/S 756 mmHg 51%
    21:00 +9°C° 0 mm 3 m/S 756 mmHg 53%
    22:00 +9°C° 0 mm 3 m/S 756 mmHg 55%
    23:00 +9°C° 0 mm 3 m/S 756 mmHg 57%

    Morgen, 21 April, Sonntag

    Zeit Temperatur Niederschläge Wind Luftdruck Luftfeuchtigkeit
    00:00 +8°C° 0 mm 3 m/S 755 mmHg 59%
    01:00 +8°C° 0 mm 3 m/S 755 mmHg 61%
    02:00 +7°C° 0 mm 3 m/S 755 mmHg 63%
    03:00 +7°C° 0 mm 3 m/S 755 mmHg 64%
    04:00 +7°C° 0 mm 3 m/S 755 mmHg 65%
    05:00 +5°C° 0 mm 3 m/S 755 mmHg 67%
    06:00 +8°C° 0 mm 3 m/S 755 mmHg 64%
    07:00 +8°C° 0 mm 4 m/S 756 mmHg 61%
    08:00 +10°C° 0 mm 4 m/S 756 mmHg 57%
    09:00 +10°C° 0 mm 5 m/S 756 mmHg 53%
    10:00 +12°C° 0 mm 5 m/S 756 mmHg 48%
    11:00 +13°C° 0 mm 5 m/S 756 mmHg 43%
    12:00 +13°C° 0 mm 5 m/S 756 mmHg 42%
    13:00 +13°C° 0 mm 5 m/S 756 mmHg 42%
    14:00 +14°C° 0 mm 5 m/S 756 mmHg 41%
    15:00 +13°C° 0 mm 5 m/S 756 mmHg 43%
    16:00 +13°C° 0 mm 5 m/S 756 mmHg 44%
    17:00 +13°C° 0 mm 5 m/S 756 mmHg 46%
    18:00 +11°C° 0 mm 4 m/S 756 mmHg 51%
    19:00 +10°C° 0 mm 3 m/S 757 mmHg 56%
    20:00 +8°C° 0 mm 3 m/S 757 mmHg 61%
    21:00 +8°C° 0 mm 2 m/S 757 mmHg 61%
    22:00 +8°C° 0 mm 2 m/S 758 mmHg 61%
    23:00 +8°C° 0 mm 2 m/S 758 mmHg 61%

    übermorgen, 22 April, Montag

    Zeit Temperatur Niederschläge Wind Luftdruck Luftfeuchtigkeit
    00:00 +8°C° 0 mm 2 m/S 758 mmHg 61%
    01:00 +8°C° 0 mm 2 m/S 758 mmHg 61%
    02:00 +8°C° 0 mm 2 m/S 759 mmHg 60%
    03:00 +7°C° 0 mm 2 m/S 759 mmHg 60%
    04:00 +7°C° 0 mm 2 m/S 759 mmHg 60%
    05:00 +7°C° 0 mm 2 m/S 759 mmHg 59%
    06:00 +8°C° 0 mm 2 m/S 759 mmHg 57%
    07:00 +10°C° 0 mm 3 m/S 759 mmHg 56%
    08:00 +11°C° 0 mm 3 m/S 760 mmHg 54%
    09:00 +12°C° 0 mm 3 m/S 760 mmHg 49%
    10:00 +13°C° 0 mm 3 m/S 760 mmHg 44%
    11:00 +14°C° 0 mm 4 m/S 760 mmHg 39%
    12:00 +14°C° 0 mm 3 m/S 760 mmHg 38%
    13:00 +14°C° 0 mm 3 m/S 760 mmHg 38%
    14:00 +14°C° 0 mm 3 m/S 760 mmHg 38%
    15:00 +14°C° 0 mm 3 m/S 760 mmHg 40%
    16:00 +14°C° 0 mm 3 m/S 760 mmHg 41%
    17:00 +14°C° 0 mm 3 m/S 759 mmHg 43%
    18:00 +13°C° 0 mm 2 m/S 760 mmHg 46%
    19:00 +12°C° 0 mm 2 m/S 760 mmHg 50%
    20:00 +10°C° 0 mm 2 m/S 760 mmHg 53%
    21:00 +10°C° 0 mm 2 m/S 760 mmHg 54%
    22:00 +10°C° 0 mm 2 m/S 760 mmHg 54%
    23:00 +9°C° 0 mm 2 m/S 761 mmHg 55%

    23 April, Dienstag

    Zeit Temperatur Niederschläge Wind Luftdruck Luftfeuchtigkeit
    00:00 +9°C° 0 mm 2 m/S 761 mmHg 55%
    01:00 +9°C° 0 mm 2 m/S 761 mmHg 56%
    02:00 +8°C° 0 mm 2 m/S 761 mmHg 57%
    03:00 +8°C° 0 mm 2 m/S 761 mmHg 58%
    04:00 +8°C° 0 mm 2 m/S 761 mmHg 59%
    05:00 +7°C° 0 mm 2 m/S 761 mmHg 60%
    06:00 +9°C° 0 mm 2 m/S 761 mmHg 58%
    07:00 +10°C° 0 mm 2 m/S 761 mmHg 56%
    08:00 +11°C° 0 mm 3 m/S 762 mmHg 54%
    09:00 +13°C° 0 mm 3 m/S 762 mmHg 49%
    10:00 +14°C° 0 mm 3 m/S 762 mmHg 43%
    11:00 +15°C° 0 mm 4 m/S 762 mmHg 38%
    12:00 +15°C° 0 mm 4 m/S 762 mmHg 39%
    13:00 +16°C° 0 mm 3 m/S 761 mmHg 39%
    14:00 +16°C° 0 mm 3 m/S 761 mmHg 39%
    15:00 +16°C° 0 mm 3 m/S 761 mmHg 41%
    16:00 +16°C° 0 mm 3 m/S 761 mmHg 43%
    17:00 +16°C° 0 mm 3 m/S 760 mmHg 46%
    18:00 +13°C° 0 mm 3 m/S 761 mmHg 50%
    19:00 +12°C° 0 mm 2 m/S 761 mmHg 55%
    20:00 +10°C° 0 mm 2 m/S 761 mmHg 60%
    21:00 +10°C° 0 mm 2 m/S 761 mmHg 60%
    22:00 +10°C° 0 mm 2 m/S 761 mmHg 60%
    23:00 +10°C° 0 mm 2 m/S 761 mmHg 60%

    24 April, Mittwoch

    Zeit Temperatur Niederschläge Wind Luftdruck Luftfeuchtigkeit
    00:00 +10°C° 0 mm 2 m/S 762 mmHg 61%
    01:00 +10°C° 0 mm 2 m/S 762 mmHg 62%
    02:00 +10°C° 0 mm 2 m/S 762 mmHg 63%
    03:00 +9°C° 0 mm 2 m/S 762 mmHg 64%
    04:00 +9°C° 0 mm 2 m/S 762 mmHg 66%
    05:00 +8°C° 0 mm 2 m/S 762 mmHg 68%
    06:00 +10°C° 0 mm 2 m/S 762 mmHg 63%
    07:00 +12°C° 0 mm 2 m/S 762 mmHg 59%
    08:00 +13°C° 0 mm 3 m/S 763 mmHg 54%
    09:00 +14°C° 0 mm 3 m/S 762 mmHg 50%
    10:00 +15°C° 0 mm 4 m/S 762 mmHg 46%
    11:00 +17°C° 0 mm 4 m/S 762 mmHg 42%
    12:00 +17°C° 0 mm 4 m/S 762 mmHg 43%
    13:00 +17°C° 0 mm 4 m/S 762 mmHg 43%
    14:00 +17°C° 0 mm 4 m/S 762 mmHg 43%
    15:00 +17°C° 0 mm 4 m/S 761 mmHg 44%
    16:00 +17°C° 0 mm 4 m/S 761 mmHg 46%
    17:00 +17°C° 0 mm 3 m/S 761 mmHg 47%
    18:00 +14°C° 0 mm 3 m/S 761 mmHg 52%
    19:00 +13°C° 0 mm 3 m/S 761 mmHg 57%
    20:00 +12°C° 0 mm 2 m/S 761 mmHg 62%
    21:00 +10°C° 0 mm 2 m/S 762 mmHg 63%
    22:00 +10°C° 0 mm 2 m/S 762 mmHg 64%
    23:00 +9°C° 0 mm 2 m/S 762 mmHg 66%

    25 April, Donnerstag

    Zeit Temperatur Niederschläge Wind Luftdruck Luftfeuchtigkeit
    00:00 +9°C° 0 mm 2 m/S 762 mmHg 67%
    01:00 +9°C° 0 mm 2 m/S 762 mmHg 68%
    02:00 +8°C° 0 mm 2 m/S 762 mmHg 69%
    03:00 +8°C° 0 mm 2 m/S 762 mmHg 70%
    04:00 +8°C° 0 mm 2 m/S 762 mmHg 71%
    05:00 +7°C° 0 mm 2 m/S 762 mmHg 72%
    06:00 +9°C° 0 mm 3 m/S 762 mmHg 68%
    07:00 +11°C° 0 mm 3 m/S 763 mmHg 64%
    08:00 +13°C° 0 mm 3 m/S 763 mmHg 61%
    09:00 +14°C° 0 mm 3 m/S 762 mmHg 55%
    10:00 +17°C° 0 mm 4 m/S 762 mmHg 50%
    11:00 +18°C° 0 mm 4 m/S 762 mmHg 44%
    12:00 +19°C° 0 mm 4 m/S 762 mmHg 43%
    13:00 +19°C° 0 mm 4 m/S 761 mmHg 43%
    14:00 +19°C° 0 mm 4 m/S 761 mmHg 42%
    15:00 +19°C° 0 mm 4 m/S 761 mmHg 44%
    16:00 +19°C° 0 mm 4 m/S 760 mmHg 46%
    17:00 +19°C° 0 mm 3 m/S 760 mmHg 48%
    18:00 +17°C° 0 mm 3 m/S 760 mmHg 53%
    19:00 +15°C° 0 mm 2 m/S 760 mmHg 58%
    20:00 +13°C° 0 mm 2 m/S 760 mmHg 63%
    21:00 +13°C° 0 mm 2 m/S 760 mmHg 64%
    22:00 +12°C° 0 mm 2 m/S 759 mmHg 65%
    23:00 +12°C° 0 mm 2 m/S 759 mmHg 65%
    Mehr zeigen